This is the latest recevied weather packets stored in our database for station/object WK7G. If no packets are shown the sender has not sent any weather packets the latest 10 day(s).
| Time | Temp. | Humidity | Pressure | Rain* | Wind** | Luminosity | Snow |
|---|---|---|---|---|---|---|---|
| 1777870429 | 7.22° C | 50% | 1005.8 hPa | 0 mm | - | 0 W/m² | - |
| 1777870127 | 7.78° C | 50% | 1005.7 hPa | 0 mm | - | 0 W/m² | - |
| 1777869824 | 7.78° C | 48% | 1005.5 hPa | 0 mm | - | 0 W/m² | - |
| 1777869522 | 7.78° C | 49% | 1005.8 hPa | 0 mm | - | 0 W/m² | - |
| 1777869218 | 8.33° C | 48% | 1005.7 hPa | 0 mm | - | 0 W/m² | - |
| 1777868916 | 8.33° C | 44% | 1005.8 hPa | 0 mm | - | 0 W/m² | - |
| 1777868612 | 8.89° C | 44% | 1005.6 hPa | 0 mm | - | 0 W/m² | - |
| 1777868308 | 8.33° C | 45% | 1005.7 hPa | 0 mm | - | 0 W/m² | - |
| 1777868004 | 7.78° C | 47% | 1005.7 hPa | 0 mm | - | 0 W/m² | - |
| 1777867701 | 8.89° C | 44% | 1005.5 hPa | 0 mm | - | 0 W/m² | - |
| 1777867399 | 9.44° C | 43% | 1005.7 hPa | 0 mm | - | 0 W/m² | - |
| 1777867094 | 10° C | 40% | 1005.7 hPa | 0 mm | - | 0 W/m² | - |
| 1777866489 | 9.44° C | 42% | 1005.7 hPa | 0 mm | - | 0 W/m² | - |
| 1777865884 | 9.44° C | 42% | 1005.6 hPa | 0 mm | - | 0 W/m² | - |
| 1777865581 | 9.44° C | 42% | 1005.5 hPa | 0 mm | - | 0 W/m² | - |
| 1777865278 | 10° C | 43% | 1005.5 hPa | 0 mm | - | 0 W/m² | - |
| 1777864975 | 10° C | 43% | 1005.6 hPa | 0 mm | - | 0 W/m² | - |
| 1777847091 | 17.78° C | 28% | 1006.5 hPa | 0 mm | - | 173 W/m² | - |
| 1777846794 | 17.78° C | 28% | 1006.4 hPa | 0 mm | - | 184 W/m² | - |
| 1777844669 | 17.78° C | 33% | 1006.8 hPa | 0 mm | - | 149 W/m² | - |
| 1777842852 | 17.78° C | 27% | 1007.5 hPa | 0 mm | - | 137 W/m² | - |
| 1777842547 | 17.78° C | 28% | 1007.4 hPa | 0 mm | - | 121 W/m² | - |
| 1777841939 | 19.44° C | 27% | 1007.4 hPa | 0 mm | - | 735 W/m² | - |
| 1777840727 | 18.89° C | 31% | 1007.6 hPa | 0 mm | - | 780 W/m² | - |
| 1777840121 | 18.33° C | 28% | 1007.5 hPa | 0 mm | - | 248 W/m² | - |
* Rain latest hour (hover to see other rain measurements)
** Current wind speed in m/s (hover to see current wind gust speed)